Location: *
(35.8942°N, 23.3025°E)
Time: 18:13:17
(UTC+00:00)

Gurwin Techsat 1B - Pass Details

Date: 04 April 2023
Orbit: 811 x 813 km, 98.9° (Epoch: 03 June)

Event Time Altitude Azimuth Distance (km) Brightness Sun altitude
Rises 02:34:25 0° 355° (N) 3,344 12.0 -19.4°
Reaches altitude 10° 02:37:24 10° 338° (NNW) 2,408 11.1 -18.9°
Enters shadow 02:40:55 19° 296° (WNW) 1,869 10.1 -18.2°
